[[{"header":{"parameterUnit":"m.s-1","parameterCategory":1,"la1":30.2992,"la2":30.254,"lo1":-89.0895,"lo2":-89.0443,"dy":0.0025,"dx":0.0025,"nx":19,"ny":19,"refTime":"2026-05-08T21:00:00:Z","depth":0,"parameterNumber":2,"parameterNumberName":"U-component_of_WINDS"},"data":[0,0,0,-2.2491,-2.2494,-2.2643,-2.2644,-2.2823,-2.2824,0,0,0,0,0,0,0,0,0,0,0,-2.2442,-2.2443,-2.2491,-2.2495,-2.2643,-2.2644,-2.2823,-2.2824,0,0,0,0,0,0,0,0,0,0,0,-2.2441,-2.2442,-2.2444,-2.2495,-2.2643,-2.2644,-2.2822,-2.2714,0,0,0,0,0,0,0,0,0,0,-2.2571,-2.252,-2.2442,-2.2444,-2.2496,-2.2643,-2.2644,-2.2709,-2.2721,-2.2751,0,-2.2778,0,-2.2804,-2.2836,-2.2836,0,0,0,-2.2499,-2.251,-2.2556,-2.2444,-2.2497,-2.2642,-2.2577,-2.2715,-2.2729,-2.2767,-2.278,-2.2787,-2.2807,-2.2837,-2.2838,-2.3001,-2.3001,0,0,-2.249,-2.2465,-2.2546,-2.2564,-2.2541,-2.2572,-2.2582,-2.2724,-2.2737,-2.2781,-2.2792,-2.281,-2.2838,-2.2839,-2.3,-2.3001,0,0,0,-2.2464,-2.2459,-2.2501,-2.2556,-2.2584,-2.2577,-2.2587,-2.273,-2.2746,-2.2794,-2.2812,-2.2839,-2.2841,-2.3,-2.3,-2.3002,0,0,0,-2.2459,-2.2444,-2.2498,-2.2484,-2.2581,-2.2659,-2.2591,-2.2736,-2.2753,-2.2811,-2.2839,-2.2843,-2.2999,-2.3,-2.3001,-2.3007,0,0,0,-2.2434,-2.2441,-2.2461,-2.2482,-2.2545,-2.2657,-2.2682,-2.274,-2.2764,-2.2836,-2.2843,-2.2999,-2.3,-2.3,-2.3005,-2.304,0,0,0,-2.2399,-2.2462,-2.246,-2.2537,-2.2544,-2.2658,-2.2681,-2.2768,-2.283,-2.284,-2.2999,-2.3,-2.2999,-2.3004,-2.3039,-2.3063,-2.3072,0,0,-2.2464,-2.2469,-2.2516,-2.2519,-2.2627,-2.2638,-2.2746,-2.2828,-2.2858,-2.2951,-2.2956,-2.3001,-2.3005,-2.304,-2.3134,-2.314,0,0,0,-2.2528,-2.2561,-2.2595,-2.2653,-2.2717,-2.2771,-2.2839,-2.2869,-2.2949,-2.2901,-2.3026,-2.3029,-2.305,-2.3063,-2.3069,-2.3088,-2.3006,-2.3006,-2.3006,-2.2582,-2.2617,-2.2696,-2.2748,-2.2804,-2.2873,-2.2921,-2.2972,-2.2993,-2.3021,-2.3048,-2.3101,-2.3115,-2.3119,-2.3139,-2.3066,-2.3066,-2.3066,-2.3066,-2.2677,-2.2728,-2.2752,-2.2837,-2.2873,-2.2945,-2.3013,-2.3024,-2.3095,-2.3084,-2.3105,-2.3087,-2.3126,-2.3144,-2.3067,-2.3067,-2.3067,-2.3067,-2.3067,-2.2714,-2.2744,-2.278,-2.2866,-2.2929,-2.298,-2.3046,-2.3078,-2.3108,-2.3129,-2.3159,-2.3159,-2.316,-2.3141,-2.3142,-2.3142,-2.3142,-2.3142,-2.3142,-2.2737,-2.2777,-2.283,-2.2901,-2.2942,-2.2999,-2.3067,-2.3108,-2.316,-2.3178,-2.3178,-2.3192,-2.3124,-2.3104,-2.3145,-2.3145,-2.3144,-2.3144,-2.3144,-2.2816,-2.2803,-2.2884,-2.2924,-2.301,-2.3068,-2.3108,-2.3187,-2.3225,-2.3256,-2.3267,-2.3212,-2.3219,-2.3215,-2.3199,-2.3261,-2.3261,-2.3261,-2.3261,-2.2845,-2.2852,-2.294,-2.3002,-2.3067,-2.311,-2.3198,-2.3252,-2.3305,-2.333,-2.3326,-2.3308,-2.3303,-2.3313,-2.3306,-2.3291,-2.3376,-2.3376,-2.3376,-2.2894,-2.2909,-2.2978,-2.303,-2.3099,-2.3157,-2.324,-2.3309,-2.3367,-2.3382,-2.335,-2.3345,-2.3316,-2.3306,-2.3317,-2.3307,-2.328,0,0]},{"header":{"parameterUnit":"m.s-1","parameterCategory":1,"la1":30.2992,"la2":30.254,"lo1":-89.0895,"lo2":-89.0443,"dy":0.0025,"dx":0.0025,"nx":19,"ny":19,"refTime":"2026-05-08T21:00:00:Z","depth":0,"parameterNumber":3,"parameterNumberName":"V-component_of_WINDS"},"data":[0,0,0,4.4792,4.4794,4.4867,4.4868,4.4959,4.496,0,0,0,0,0,0,0,0,0,0,0,4.4772,4.4773,4.4792,4.4794,4.4867,4.4868,4.4959,4.496,0,0,0,0,0,0,0,0,0,0,0,4.4772,4.4773,4.4774,4.4794,4.4867,4.4868,4.4959,4.4904,0,0,0,0,0,0,0,0,0,0,4.4832,4.4817,4.4773,4.4774,4.4795,4.4867,4.4868,4.4901,4.4907,4.4926,0,4.4946,0,4.4955,4.4966,4.4967,0,0,0,4.4792,4.4811,4.483,4.4774,4.4796,4.4867,4.4834,4.4904,4.4911,4.4934,4.4947,4.4951,4.4956,4.4967,4.4967,4.5089,4.509,0,0,4.4788,4.4786,4.4825,4.4835,4.4826,4.4831,4.4836,4.4909,4.4922,4.4948,4.4953,4.4958,4.4968,4.4968,4.5089,4.5089,0,0,0,4.4778,4.4783,4.48,4.4831,4.4844,4.4834,4.4839,4.4918,4.4924,4.4954,4.4959,4.4968,4.4969,4.5088,4.5089,4.5119,0,0,0,4.4775,4.4777,4.4798,4.4797,4.4843,4.4883,4.4847,4.4919,4.4927,4.4958,4.4968,4.497,4.5087,4.5088,4.5117,4.5133,0,0,0,4.4767,4.4776,4.4788,4.4797,4.4829,4.4882,4.4892,4.4921,4.4931,4.4967,4.497,4.5087,4.5088,4.5115,4.513,4.5164,0,0,0,4.4757,4.4813,4.4788,4.4853,4.4828,4.4901,4.4891,4.4945,4.498,4.4969,4.5087,4.5089,4.5114,4.5128,4.5162,4.5191,4.5204,0,0,4.4827,4.4822,4.486,4.484,4.4917,4.489,4.4971,4.5004,4.5008,4.5061,4.5064,4.5118,4.513,4.5163,4.5278,4.5288,0,0,0,4.4881,4.4908,4.4929,4.4964,4.4992,4.5016,4.5037,4.5049,4.5094,4.5036,4.514,4.5147,4.5167,4.5181,4.5189,4.5205,4.5096,4.5096,4.5095,4.4976,4.498,4.5043,4.5056,4.5088,4.511,4.5136,4.5155,4.5149,4.5173,4.5188,4.5257,4.5274,4.528,4.5297,4.5205,4.5205,4.5206,4.5206,4.5077,4.5116,4.5107,4.5165,4.5167,4.5215,4.5237,4.5231,4.5273,4.5247,4.5264,4.5233,4.5291,4.5306,4.5208,4.5208,4.5207,4.5207,4.5207,4.5138,4.5157,4.5172,4.5221,4.5258,4.5268,4.531,4.5311,4.5312,4.5329,4.5344,4.5344,4.5342,4.5337,4.5337,4.5337,4.5337,4.5338,4.5338,4.5195,4.5211,4.5247,4.5282,4.5303,4.5331,4.5352,4.5372,4.5394,4.5391,4.5392,4.5381,4.5297,4.5275,4.5341,4.5341,4.534,4.534,4.534,4.5293,4.5271,4.5328,4.5349,4.5388,4.5423,4.5425,4.5465,4.5482,4.5502,4.5488,4.5427,4.5421,4.5414,4.5396,4.5489,4.5489,4.5489,4.5489,4.5343,4.5341,4.5399,4.5433,4.5466,4.5473,4.5533,4.5549,4.5562,4.5572,4.5559,4.5535,4.5528,4.5526,4.5517,4.55,4.5618,4.5618,4.5618,4.5403,4.5404,4.5457,4.5472,4.5502,4.5527,4.5583,4.562,4.563,4.5623,4.5579,4.5574,4.5536,4.5523,4.5513,4.5499,4.5467,0,0]}]]